• In Deutschland
  • Länderverzeichnis
  • Für 7 Tage
  • Wassertemperatur
  • Satellitenkarten
  • Wetterkarte
  • Widgets
  • user-avatar
    Anmelden

    Stündliche Wetter Korçe

    Heute, 26 Mai, Samstag

    Zeit Temperatur Niederschläge Wind Luftdruck Luftfeuchtigkeit
    00:00 +13°C° 0 mm 1 m/S 667 mmHg 81%
    01:00 +12°C° 0 mm 1 m/S 667 mmHg 82%
    02:00 +12°C° 0 mm 2 m/S 667 mmHg 82%
    03:00 +12°C° 0 mm 2 m/S 667 mmHg 82%
    04:00 +12°C° 0 mm 2 m/S 667 mmHg 82%
    05:00 +14°C° 0 mm 2 m/S 667 mmHg 78%
    06:00 +16°C° 0 mm 2 m/S 668 mmHg 74%
    07:00 +18°C° 0 mm 2 m/S 669 mmHg 69%
    08:00 +19°C° 0 mm 2 m/S 669 mmHg 63%
    09:00 +20°C° 0 mm 2 m/S 670 mmHg 57%
    10:00 +21°C° 0 mm 2 m/S 670 mmHg 51%
    11:00 +23°C° 0,3 mm 2 m/S 670 mmHg 50%
    12:00 +23°C° 0,3 mm 2 m/S 670 mmHg 50%
    13:00 +23°C° 0,3 mm 2 m/S 670 mmHg 50%
    14:00 +23°C° 0,4 mm 2 m/S 670 mmHg 51%
    15:00 +23°C° 0,4 mm 2 m/S 670 mmHg 52%
    16:00 +23°C° 0,4 mm 2 m/S 669 mmHg 54%
    17:00 +20°C° 0,1 mm 2 m/S 669 mmHg 60%
    18:00 +19°C° 0,1 mm 1 m/S 669 mmHg 66%
    19:00 +16°C° 0,1 mm 1 m/S 668 mmHg 73%
    20:00 +16°C° 0 mm 1 m/S 668 mmHg 74%
    21:00 +15°C° 0 mm 1 m/S 669 mmHg 75%
    22:00 +14°C° 0 mm 1 m/S 669 mmHg 76%
    23:00 +14°C° 0 mm 1 m/S 669 mmHg 76%

    Morgen, 27 Mai, Sonntag

    Zeit Temperatur Niederschläge Wind Luftdruck Luftfeuchtigkeit
    00:00 +14°C° 0 mm 1 m/S 669 mmHg 77%
    01:00 +13°C° 0 mm 1 m/S 669 mmHg 77%
    02:00 +13°C° 0 mm 1 m/S 668 mmHg 77%
    03:00 +13°C° 0 mm 1 m/S 668 mmHg 77%
    04:00 +13°C° 0 mm 1 m/S 668 mmHg 77%
    05:00 +14°C° 0 mm 1 m/S 669 mmHg 74%
    06:00 +16°C° 0 mm 1 m/S 669 mmHg 71%
    07:00 +19°C° 0 mm 1 m/S 670 mmHg 68%
    08:00 +20°C° 0 mm 1 m/S 670 mmHg 61%
    09:00 +22°C° 0 mm 1 m/S 670 mmHg 55%
    10:00 +23°C° 0 mm 1 m/S 671 mmHg 49%
    11:00 +24°C° 0 mm 2 m/S 671 mmHg 47%
    12:00 +24°C° 0 mm 2 m/S 671 mmHg 46%
    13:00 +24°C° 0 mm 2 m/S 671 mmHg 45%
    14:00 +24°C° 0,1 mm 2 m/S 670 mmHg 49%
    15:00 +24°C° 0,1 mm 2 m/S 670 mmHg 52%
    16:00 +23°C° 0,1 mm 2 m/S 670 mmHg 56%
    17:00 +20°C° 0,2 mm 2 m/S 669 mmHg 62%
    18:00 +20°C° 0,2 mm 1 m/S 669 mmHg 69%
    19:00 +18°C° 0,2 mm 1 m/S 669 mmHg 76%
    20:00 +16°C° 0 mm 1 m/S 669 mmHg 78%
    21:00 +15°C° 0 mm 1 m/S 669 mmHg 79%
    22:00 +15°C° 0 mm 1 m/S 669 mmHg 80%
    23:00 +14°C° 0 mm 1 m/S 669 mmHg 80%

    übermorgen, 28 Mai, Montag

    Zeit Temperatur Niederschläge Wind Luftdruck Luftfeuchtigkeit
    00:00 +14°C° 0 mm 1 m/S 669 mmHg 80%
    01:00 +14°C° 0 mm 1 m/S 669 mmHg 80%
    02:00 +14°C° 0 mm 1 m/S 668 mmHg 81%
    03:00 +13°C° 0 mm 1 m/S 668 mmHg 81%
    04:00 +13°C° 0 mm 1 m/S 668 mmHg 82%
    05:00 +15°C° 0 mm 1 m/S 669 mmHg 78%
    06:00 +16°C° 0 mm 1 m/S 669 mmHg 74%
    07:00 +19°C° 0 mm 1 m/S 670 mmHg 70%
    08:00 +20°C° 0,1 mm 1 m/S 670 mmHg 65%
    09:00 +22°C° 0,1 mm 1 m/S 671 mmHg 61%
    10:00 +23°C° 0,1 mm 1 m/S 671 mmHg 56%
    11:00 +23°C° 0,8 mm 2 m/S 671 mmHg 57%
    12:00 +23°C° 0,8 mm 2 m/S 671 mmHg 57%
    13:00 +23°C° 0,8 mm 2 m/S 670 mmHg 58%
    14:00 +23°C° 1 mm 2 m/S 670 mmHg 59%
    15:00 +23°C° 1 mm 2 m/S 670 mmHg 61%
    16:00 +23°C° 1 mm 2 m/S 670 mmHg 62%
    17:00 +20°C° 0,4 mm 2 m/S 669 mmHg 68%
    18:00 +19°C° 0,4 mm 1 m/S 669 mmHg 74%
    19:00 +18°C° 0,4 mm 1 m/S 669 mmHg 79%
    20:00 +16°C° 0,2 mm 1 m/S 669 mmHg 81%
    21:00 +16°C° 0,2 mm 1 m/S 669 mmHg 82%
    22:00 +15°C° 0,2 mm 1 m/S 669 mmHg 84%
    23:00 +14°C° 0 mm 1 m/S 669 mmHg 84%

    29 Mai, Dienstag

    Zeit Temperatur Niederschläge Wind Luftdruck Luftfeuchtigkeit
    00:00 +14°C° 0 mm 1 m/S 669 mmHg 85%
    01:00 +14°C° 0 mm 1 m/S 668 mmHg 85%
    02:00 +13°C° 0 mm 1 m/S 668 mmHg 85%
    03:00 +13°C° 0 mm 1 m/S 668 mmHg 86%
    04:00 +13°C° 0 mm 1 m/S 668 mmHg 86%
    05:00 +14°C° 0 mm 1 m/S 668 mmHg 82%
    06:00 +16°C° 0 mm 1 m/S 669 mmHg 78%
    07:00 +18°C° 0 mm 1 m/S 669 mmHg 75%
    08:00 +20°C° 0 mm 1 m/S 670 mmHg 69%
    09:00 +21°C° 0 mm 1 m/S 670 mmHg 64%
    10:00 +23°C° 0 mm 1 m/S 670 mmHg 58%
    11:00 +23°C° 0,3 mm 1 m/S 670 mmHg 58%
    12:00 +23°C° 0,3 mm 2 m/S 670 mmHg 57%
    13:00 +23°C° 0,3 mm 2 m/S 669 mmHg 57%
    14:00 +23°C° 0,9 mm 2 m/S 669 mmHg 59%
    15:00 +23°C° 0,9 mm 2 m/S 669 mmHg 61%
    16:00 +21°C° 0,9 mm 2 m/S 668 mmHg 63%
    17:00 +20°C° 0,4 mm 2 m/S 668 mmHg 69%
    18:00 +19°C° 0,4 mm 1 m/S 668 mmHg 74%
    19:00 +18°C° 0,4 mm 1 m/S 667 mmHg 80%
    20:00 +16°C° 0 mm 1 m/S 667 mmHg 81%
    21:00 +15°C° 0 mm 1 m/S 667 mmHg 82%
    22:00 +15°C° 0 mm 1 m/S 667 mmHg 83%
    23:00 +14°C° 0 mm 1 m/S 667 mmHg 83%

    30 Mai, Mittwoch

    Zeit Temperatur Niederschläge Wind Luftdruck Luftfeuchtigkeit
    00:00 +14°C° 0 mm 1 m/S 667 mmHg 83%
    01:00 +13°C° 0 mm 1 m/S 666 mmHg 83%
    02:00 +13°C° 0 mm 1 m/S 666 mmHg 83%
    03:00 +13°C° 0 mm 1 m/S 666 mmHg 83%
    04:00 +12°C° 0 mm 1 m/S 666 mmHg 82%
    05:00 +14°C° 0 mm 1 m/S 667 mmHg 77%
    06:00 +16°C° 0 mm 1 m/S 667 mmHg 73%
    07:00 +19°C° 0 mm 1 m/S 668 mmHg 68%
    08:00 +20°C° 0 mm 1 m/S 668 mmHg 63%
    09:00 +22°C° 0 mm 1 m/S 668 mmHg 58%
    10:00 +23°C° 0 mm 1 m/S 669 mmHg 53%
    11:00 +23°C° 0 mm 2 m/S 669 mmHg 53%
    12:00 +24°C° 0 mm 2 m/S 668 mmHg 53%
    13:00 +24°C° 0 mm 2 m/S 668 mmHg 53%
    14:00 +24°C° 0,3 mm 2 m/S 668 mmHg 56%
    15:00 +23°C° 0,3 mm 2 m/S 668 mmHg 59%
    16:00 +23°C° 0,3 mm 2 m/S 667 mmHg 62%
    17:00 +20°C° 0,3 mm 2 m/S 667 mmHg 69%
    18:00 +20°C° 0,3 mm 1 m/S 667 mmHg 76%
    19:00 +18°C° 0,3 mm 1 m/S 666 mmHg 82%
    20:00 +16°C° 0,5 mm 1 m/S 666 mmHg 84%
    21:00 +16°C° 0,5 mm 1 m/S 666 mmHg 85%
    22:00 +15°C° 0,5 mm 1 m/S 666 mmHg 87%
    23:00 +15°C° 0,1 mm 1 m/S 666 mmHg 87%

    31 Mai, Donnerstag

    Zeit Temperatur Niederschläge Wind Luftdruck Luftfeuchtigkeit
    00:00 +14°C° 0,1 mm 0 m/S 666 mmHg 87%
    01:00 +13°C° 0,1 mm 0 m/S 666 mmHg 87%
    02:00 +13°C° 0,1 mm 0 m/S 666 mmHg 87%
    03:00 +13°C° 0,1 mm 0 m/S 666 mmHg 87%
    04:00 +14°C° 0,1 mm 1 m/S 666 mmHg 87%
    05:00 +14°C° 0 mm 0 m/S 666 mmHg 82%
    06:00 +16°C° 0 mm 0 m/S 667 mmHg 76%
    07:00 +18°C° 0 mm 0 m/S 668 mmHg 70%
    08:00 +21°C° 0,1 mm 1 m/S 668 mmHg 65%
    09:00 +22°C° 0,1 mm 1 m/S 668 mmHg 60%
    10:00 +23°C° 0,1 mm 2 m/S 668 mmHg 55%
    11:00 +24°C° 0,3 mm 2 m/S 668 mmHg 54%
    12:00 +24°C° 0,3 mm 2 m/S 668 mmHg 53%
    13:00 +25°C° 0,3 mm 3 m/S 668 mmHg 52%
    14:00 +24°C° 0,3 mm 3 m/S 668 mmHg 54%
    15:00 +24°C° 0,3 mm 3 m/S 668 mmHg 57%
    16:00 +24°C° 0,3 mm 3 m/S 668 mmHg 59%
    17:00 +21°C° 0,3 mm 2 m/S 667 mmHg 65%
    18:00 +19°C° 0,3 mm 2 m/S 667 mmHg 72%
    19:00 +18°C° 0,3 mm 1 m/S 667 mmHg 78%
    20:00 +16°C° 0,1 mm 1 m/S 667 mmHg 80%
    21:00 +15°C° 0,1 mm 1 m/S 667 mmHg 82%
    22:00 +15°C° 0,1 mm 1 m/S 667 mmHg 83%
    23:00 +14°C° 0 mm 1 m/S 667 mmHg 83%
    Mehr zeigen